COSMOS 1275 DEB, 12739

Orbit data source: Space-Track

COSMOS 1275 DEB, 12739 is space debris in LEO originally from a launch on Thu, 04 Jun 1981 UTC launched from the Plesetsk Missile And Space Complex (PKMTR). Debris objects in space refer to the collection of defunct objects orbiting the Earth. Examples of debris include non-operational satellites, rocket bodies, and fragments generated from explosions, collisions, or faulty payload assembly.

Loading next visibility...
Identifier
12739, 1981-053CG
Orbit
LEO
Country
Flag of CISCIS
Related business
Manufacturer
Unknown
Mission
Spacecraft
Bus & Motor
Unknown
Mass
Unknown
Launch date (UTC)
1981-06-04 (45 years ago)
Launch vehicle
Unknown
Launch site
Plesetsk Missile And Space Complex (PKMTR)
Object type
Payload
Rocket body
Debris
Shape & HBR
Unknown shape, 0.1 m
Radar Cross Section
Medium (>0.1 m² and <1 m²)

Expand to show TLE details & history
Last TLE update: 8 hours ago

TLE from 8 hours ago
0 COSMOS 1275 DEB
1 12739U 81053CG  26236.40234823  .00003165  00000-0  86909-3 0  9994
2 12739  82.9311 216.2036 0003327 330.9345  29.1665 14.46813469315420
Epoch: 2026-08-24T09:39Z
TLE epoch observation values (Epoch: 2026-08-24T09:39:22.887Z)
Latitude
-0.00003°
Longitude
98.67367°
Altitude
737.007 km
Speed
7.488 km/s
True Right ascension
14h 24m 48s
True Declination
0° 00' 00"
Sunlit
Object was in daylight at epoch
Visualization orbit readout
Latitude
Unknown
Longitude
Unknown
Altitude
Unknown
Speed
Unknown
Apparent Right ascension
Unknown
Apparent Declination
Unknown
Sunlit
N/A
Visualization observer readout
Local Sidereal Time
09:04:38
Azimuth
Unknown
Elevation
Unknown
Doppler factor
Unknown
Orbital elements
Apogee altitude
735.492 km
Perigee altitude
730.76 km
Semi-major axis
7,111.263 km
Eccentricity
0.00033
Inclination
82.9311°
RAAN
216.2036°
Arg. of periapsis
330.9345°
True anomaly
29.18509°
Mean anomaly
29.1665°
Eccentric anomaly
29.17579°
Mean motion
3.61929 °/min
Orbital period
99.47 mins
BSTAR
0.00086909
Loading maneuver chart data...
Computing Atmospheric mass density...

Documentation

Showing up to 5 results
|